Kerkyra, Greece

5:08 AM EEST on September 29, 2016 (GMT +0300)
Ioannis Kapodistrias

Weather History for LGKR - January, 2013

Change the Weather History Date:

Sunday, January 27, 2013

  Actual Average Record
Temperature  
Mean Temperature 49 °F -  
Max Temperature 54 °F 55 °F 62 °F (2002)
Min Temperature 44 °F 39 °F 28 °F (2000)
Degree Days  
Heating Degree Days 16    
Moisture  
Dew Point 45 °F    
Average Humidity 85    
Maximum Humidity 100    
Minimum Humidity 74    
Precipitation  
Precipitation 0.00 in - - ()
Sea Level Pressure  
Sea Level Pressure 29.79 in    
Wind  
Wind Speed 3 mph ()    
Max Wind Speed 14 mph    
Max Gust Speed -    
Visibility 6.4 miles    
Events      
Averages and records for this station are not official NWS values.
T = Trace of Precipitation, MM = Missing Value Source: Averaged Metar Reports

Daily Weather History Graph

Daily Weather History Graph

Search for Another Location

Airport or City:

Trip Planner

Search our weather history database for the weather conditions in past years. The results will help you decide how hot, cold, wet, or windy it might be!

Date:

Astronomy

Jan. 27, 2013 Rise Set
Actual Time 7:52 AM EET 5:54 PM EET
Civil Twilight 7:23 AM EET 6:23 PM EET
Nautical Twilight 6:51 AM EET 6:55 PM EET
Astronomical Twilight 6:19 AM EET 7:27 PM EET
Moon 6:30 PM EET (1/27) 7:35 AM EET (1/27)
Length of Visible Light 10h 59m
Length of Day
10h 02m
Full, 100% of the Moon is Illuminated
Jan 27
Full
Feb 3
Last Quarter
Feb 10
New
Feb 17
First Quarter
Feb 25
Full

Hourly Weather History & Observations

Time (EET) Temp. Windchill Dew Point Humidity Pressure Visibility Wind Dir Wind Speed Gust Speed Precip Events Conditions
12:20 AM 48.2 °F - 44.6 °F 87% 29.65 in 6.2 mi WNW 4.6 mph - N/A   Mostly Cloudy
12:50 AM 46.4 °F 42.4 °F 44.6 °F 93% 29.68 in 6.2 mi WNW 8.1 mph - N/A   Mostly Cloudy
1:20 AM 46.4 °F 42.4 °F 44.6 °F 93% 29.68 in 6.2 mi WNW 8.1 mph - N/A   Mostly Cloudy
1:50 AM 48.2 °F - 42.8 °F 82% 29.68 in 6.2 mi WNW 5.8 mph - N/A   Mostly Cloudy
2:00 AM 49 °F - 43 °F 74% 29.69 in 6 mi WNW 5.8 mph - -   Partly Cloudy
2:20 AM 48.2 °F - 42.8 °F 82% 29.68 in 6.2 mi WNW 5.8 mph - N/A   Mostly Cloudy
2:50 AM 51.8 °F - 44.6 °F 76% 29.68 in 6.2 mi WNW 5.8 mph - N/A   Mostly Cloudy
3:20 AM 51.8 °F - 44.6 °F 76% 29.68 in 6.2 mi WNW 5.8 mph - N/A   Mostly Cloudy
3:50 AM 50.0 °F - 44.6 °F 82% 29.68 in 6.2 mi NW 13.8 mph - N/A   Mostly Cloudy
4:20 AM 50.0 °F - 44.6 °F 82% 29.68 in 6.2 mi WNW 13.8 mph - N/A   Mostly Cloudy
4:50 AM 48.2 °F - 42.8 °F 82% 29.71 in 6.2 mi Calm Calm - N/A   Mostly Cloudy
5:20 AM 48.2 °F - 42.8 °F 82% 29.71 in 6.2 mi Calm Calm - N/A   Mostly Cloudy
5:50 AM 48.2 °F - 44.6 °F 87% 29.71 in 6.2 mi NE 4.6 mph - N/A   Mostly Cloudy
6:20 AM 48.2 °F - 44.6 °F 87% 29.71 in 6.2 mi Calm Calm - N/A   Mostly Cloudy
6:50 AM 48.2 °F - 44.6 °F 87% 29.71 in 6.2 mi Calm Calm - N/A   Mostly Cloudy
7:20 AM 48.2 °F - 44.6 °F 87% 29.71 in 6.2 mi Calm Calm - N/A   Mostly Cloudy
7:50 AM 46.4 °F - 46.4 °F 100% 29.74 in 6.2 mi Calm Calm - N/A   Mostly Cloudy
8:00 AM 47 °F - 46 °F 92% 29.77 in 12 mi Calm Calm - -   Mostly Cloudy
8:20 AM 46.4 °F - 46.4 °F 100% 29.74 in 6.2 mi Calm Calm - N/A   Mostly Cloudy
8:50 AM 48.2 °F - 46.4 °F 93% 29.77 in 6.2 mi Calm Calm - N/A   Mostly Cloudy
9:20 AM 48.2 °F - 46.4 °F 93% 29.77 in 6.2 mi Calm Calm - N/A   Mostly Cloudy
9:50 AM 50.0 °F - 46.4 °F 87% 29.80 in 6.2 mi Calm Calm - N/A   Mostly Cloudy
10:20 AM 50.0 °F - 46.4 °F 87% 29.80 in 6.2 mi Calm Calm - N/A   Mostly Cloudy
10:50 AM 51.8 °F - 48.2 °F 88% 29.80 in 6.2 mi East 4.6 mph - N/A   Mostly Cloudy
11:20 AM 51.8 °F - 48.2 °F 88% 29.80 in 6.2 mi East 5.8 mph - N/A   Mostly Cloudy
11:50 AM 53.6 °F - 46.4 °F 77% 29.80 in 6.2 mi East 5.8 mph - N/A   Mostly Cloudy
12:20 PM 53.6 °F - 46.4 °F 77% 29.80 in 6.2 mi East 4.6 mph - N/A   Mostly Cloudy
12:50 PM 53.6 °F - 48.2 °F 82% 29.80 in 6.2 mi East 6.9 mph - N/A   Mostly Cloudy
1:20 PM 53.6 °F - 48.2 °F 82% 29.80 in 6.2 mi ENE 4.6 mph - N/A   Mostly Cloudy
1:50 PM 53.6 °F - 48.2 °F 82% 29.80 in 6.2 mi East 4.6 mph - N/A   Mostly Cloudy
2:00 PM 53 °F - 48 °F 77% 29.83 in 12 mi East 4.6 mph - -   Partly Cloudy
2:20 PM 53.6 °F - 48.2 °F 82% 29.80 in 6.2 mi East 4.6 mph - N/A   Mostly Cloudy
2:50 PM 53.6 °F - 48.2 °F 82% 29.80 in 6.2 mi Calm Calm - N/A   Mostly Cloudy
3:20 PM 53.6 °F - 48.2 °F 82% 29.80 in 6.2 mi Calm Calm - N/A   Mostly Cloudy
3:50 PM 53.6 °F - 48.2 °F 82% 29.83 in 6.2 mi Calm Calm - N/A   Mostly Cloudy
4:20 PM 53.6 °F - 48.2 °F 82% 29.83 in 6.2 mi Calm Calm - N/A   Mostly Cloudy
4:50 PM 51.8 °F - 46.4 °F 82% 29.83 in 6.2 mi Calm Calm - N/A   Mostly Cloudy
5:20 PM 51.8 °F - 46.4 °F 82% 29.83 in 6.2 mi Calm Calm - N/A   Mostly Cloudy
5:50 PM 51.8 °F - 46.4 °F 82% 29.83 in 6.2 mi Calm Calm - N/A   Scattered Clouds
6:20 PM 50.0 °F - 46.4 °F 87% 29.83 in 6.2 mi Calm Calm - N/A   Scattered Clouds
6:50 PM 50.0 °F - 46.4 °F 87% 29.86 in 6.2 mi Calm Calm - N/A   Scattered Clouds
7:20 PM 50.0 °F - 46.4 °F 87% 29.86 in 6.2 mi Calm Calm - N/A   Scattered Clouds
7:50 PM 48.2 °F - 44.6 °F 87% 29.89 in 6.2 mi Calm Calm - N/A   Scattered Clouds
8:00 PM 49 °F - 44 °F 79% 29.89 in 6 mi Calm Calm - -   Partly Cloudy
8:20 PM 48.2 °F - 44.6 °F 87% 29.89 in 6.2 mi Calm Calm - N/A   Scattered Clouds
8:50 PM 48.2 °F - 44.6 °F 87% 29.89 in 6.2 mi Calm Calm - N/A   Scattered Clouds
9:20 PM 48.2 °F - 44.6 °F 87% 29.89 in 6.2 mi Calm Calm - N/A   Scattered Clouds
9:50 PM 46.4 °F - 41.0 °F 81% 29.89 in 6.2 mi Calm Calm - N/A   Scattered Clouds
10:20 PM 46.4 °F - 41.0 °F 81% 29.89 in 6.2 mi Calm Calm - N/A   Scattered Clouds
10:50 PM 44.6 °F - 41.0 °F 87% 29.92 in 6.2 mi Calm Calm - N/A   Mostly Cloudy
11:20 PM 44.6 °F - 41.0 °F 87% 29.92 in 6.2 mi Calm Calm - N/A   Mostly Cloudy
11:50 PM 44.6 °F 40.2 °F 41.0 °F 87% 29.92 in 6.2 mi WNW 8.1 mph - N/A   Mostly Cloudy